Time,TemperatureF,DewpointF,PressureIn,WindDirection,WindDirectionDegrees,WindSpeedMPH,WindSpeedGustMPH,Humidity,HourlyPrecipIn,Conditions,Clouds,dailyrainin,SoftwareType,DateUTC
2013-09-29 00:00:00,73.3,71.5,29.97,North,0,1.0,5.0,94,0.52,,,0.13,VWS V14.01,2013-09-29 04:00:00,
2013-09-29 00:15:00,73.5,72.0,29.97,NNW,338,2.0,6.0,95,0.61,,,0.24,VWS V14.01,2013-09-29 04:15:00,
2013-09-29 00:30:00,73.8,72.3,29.96,NW,315,2.0,6.0,95,0.59,,,0.26,VWS V14.01,2013-09-29 04:30:00,
2013-09-29 00:45:00,73.9,72.4,29.95,NW,315,1.0,3.0,95,0.34,,,0.26,VWS V14.01,2013-09-29 04:45:00,
2013-09-29 01:00:00,74.0,72.5,29.95,NW,315,0.0,2.0,95,0.26,,,0.26,VWS V14.01,2013-09-29 05:00:00,
2013-09-29 01:15:00,74.4,72.9,29.94,NW,315,0.0,4.0,95,0.13,,,0.26,VWS V14.01,2013-09-29 05:15:00,
2013-09-29 01:30:00,74.0,72.5,29.93,SSW,202,1.0,3.0,95,0.02,,,0.26,VWS V14.01,2013-09-29 05:30:00,
2013-09-29 01:45:00,74.1,72.6,29.93,SSW,202,0.0,1.0,95,0.00,,,0.26,VWS V14.01,2013-09-29 05:45:00,
2013-09-29 02:00:00,73.9,72.4,29.93,SSW,202,0.0,1.0,95,0.01,,,0.27,VWS V14.01,2013-09-29 06:00:00,
2013-09-29 02:15:00,74.0,72.5,29.93,SSW,202,0.0,0.0,95,0.01,,,0.27,VWS V14.01,2013-09-29 06:15:00,
2013-09-29 02:30:00,74.2,72.7,29.93,SSW,202,1.0,4.0,95,0.01,,,0.27,VWS V14.01,2013-09-29 06:30:00,
2013-09-29 02:45:00,74.0,72.5,29.92,SSW,202,1.0,6.0,95,0.01,,,0.27,VWS V14.01,2013-09-29 06:45:00,
2013-09-29 03:00:00,74.5,73.3,29.92,SSW,202,0.0,3.0,96,0.01,,,0.27,VWS V14.01,2013-09-29 07:00:00,
2013-09-29 03:15:00,74.3,73.1,29.91,SW,225,1.0,4.0,96,0.00,,,0.27,VWS V14.01,2013-09-29 07:15:00,
2013-09-29 03:30:00,74.3,73.1,29.91,SW,225,0.0,2.0,96,0.00,,,0.27,VWS V14.01,2013-09-29 07:30:00,
2013-09-29 03:45:00,74.2,73.0,29.91,SW,225,1.0,2.0,96,0.00,,,0.27,VWS V14.01,2013-09-29 07:45:00,
2013-09-29 04:00:00,74.3,72.8,29.91,SW,225,0.0,2.0,95,0.00,,,0.27,VWS V14.01,2013-09-29 08:00:00,
2013-09-29 04:15:00,74.4,73.2,29.91,SW,225,0.0,2.0,96,0.00,,,0.27,VWS V14.01,2013-09-29 08:15:00,
2013-09-29 04:30:00,74.6,73.1,29.92,SW,225,1.0,4.0,95,0.00,,,0.27,VWS V14.01,2013-09-29 08:30:00,
2013-09-29 04:45:00,74.8,73.6,29.92,SSW,202,1.0,4.0,96,0.00,,,0.27,VWS V14.01,2013-09-29 08:45:00,
2013-09-29 05:00:00,74.8,73.3,29.92,SW,225,2.0,5.0,95,0.00,,,0.27,VWS V14.01,2013-09-29 09:00:00,
2013-09-29 05:15:00,75.0,73.8,29.92,SSW,202,1.0,3.0,96,0.00,,,0.27,VWS V14.01,2013-09-29 09:15:00,
2013-09-29 05:30:00,75.1,73.9,29.92,WSW,248,1.0,3.0,96,0.00,,,0.27,VWS V14.01,2013-09-29 09:30:00,
2013-09-29 05:45:00,75.3,74.1,29.92,West,270,2.0,4.0,96,0.00,,,0.27,VWS V14.01,2013-09-29 09:45:00,
2013-09-29 06:00:00,75.5,74.0,29.92,NW,315,1.0,3.0,95,0.00,,,0.27,VWS V14.01,2013-09-29 10:00:00,
2013-09-29 06:15:00,75.4,73.9,29.93,NW,315,1.0,3.0,95,0.00,,,0.27,VWS V14.01,2013-09-29 10:15:00,
2013-09-29 06:30:00,75.1,73.9,29.92,WSW,248,1.0,3.0,96,0.00,,,0.27,VWS V14.01,2013-09-29 10:30:00,
2013-09-29 06:41:00,75.4,73.9,29.93,NW,315,1.0,3.0,95,0.00,,,0.27,VWS V14.01,2013-09-29 10:41:00,
2013-09-29 06:45:00,75.0,73.5,29.93,NNW,332,4.0,4.0,95,0.00,,,0.14,VWS V14.01,2013-09-29 10:45:00,
2013-09-29 06:46:00,75.0,73.5,29.93,NNW,332,2.0,4.0,95,0.00,,,0.14,VWS V14.01,2013-09-29 10:46:00,
2013-09-29 06:51:00,74.8,73.3,29.94,NNW,329,1.0,5.0,95,0.00,,,0.14,VWS V14.01,2013-09-29 10:51:00,
2013-09-29 06:56:00,74.8,73.3,29.94,NNW,329,3.0,5.0,95,0.00,,,0.14,VWS V14.01,2013-09-29 10:56:00,
2013-09-29 07:00:00,74.8,73.3,29.94,NNW,329,2.0,5.0,95,0.00,,,0.14,VWS V14.01,2013-09-29 11:00:00,
2013-09-29 07:01:00,74.8,73.3,29.94,NNW,329,3.0,3.0,95,0.00,,,0.14,VWS V14.01,2013-09-29 11:01:00,
2013-09-29 07:06:00,74.8,73.3,29.94,NNW,329,2.0,3.0,95,0.00,,,0.14,VWS V14.01,2013-09-29 11:06:00,
2013-09-29 07:11:00,74.7,73.2,29.94,NNW,329,2.0,4.0,95,0.00,,,0.14,VWS V14.01,2013-09-29 11:11:00,
2013-09-29 07:15:00,74.7,73.2,29.94,NNW,329,1.0,4.0,95,0.00,,,0.14,VWS V14.01,2013-09-29 11:15:00,
2013-09-29 07:16:00,74.7,73.2,29.94,NNW,329,2.0,2.0,95,0.00,,,0.14,VWS V14.01,2013-09-29 11:16:00,
2013-09-29 07:21:00,74.6,73.1,29.94,NNW,329,2.0,3.0,95,0.00,,,0.14,VWS V14.01,2013-09-29 11:21:00,
2013-09-29 07:26:00,74.5,73.0,29.94,NNW,329,1.0,3.0,95,0.00,,,0.14,VWS V14.01,2013-09-29 11:26:00,
2013-09-29 07:30:00,74.5,73.0,29.94,NNW,329,1.0,3.0,95,0.00,,,0.14,VWS V14.01,2013-09-29 11:30:00,
2013-09-29 07:31:00,74.5,73.0,29.94,NNW,329,0.0,2.0,95,0.00,,,0.14,VWS V14.01,2013-09-29 11:31:00,
2013-09-29 07:36:00,74.6,73.1,29.94,NNW,329,1.0,2.0,95,0.00,,,0.14,VWS V14.01,2013-09-29 11:36:00,
2013-09-29 07:41:00,74.6,73.1,29.94,NNW,329,1.0,2.0,95,0.00,,,0.14,VWS V14.01,2013-09-29 11:41:00,
2013-09-29 07:45:00,74.6,73.1,29.94,NNW,329,1.0,3.0,95,0.00,,,0.14,VWS V14.01,2013-09-29 11:45:00,
2013-09-29 07:46:00,74.6,73.1,29.94,NNW,329,2.0,3.0,95,0.00,,,0.14,VWS V14.01,2013-09-29 11:46:00,
2013-09-29 07:51:00,74.7,73.2,29.94,NNW,329,2.0,3.0,95,0.00,,,0.14,VWS V14.01,2013-09-29 11:51:00,
2013-09-29 07:56:00,74.8,73.3,29.94,NNW,329,1.0,3.0,95,0.00,,,0.14,VWS V14.01,2013-09-29 11:56:00,
2013-09-29 08:00:00,74.8,73.3,29.95,NNW,329,2.0,3.0,95,0.00,,,0.14,VWS V14.01,2013-09-29 12:00:00,
2013-09-29 08:01:00,74.8,73.3,29.95,NNW,329,1.0,2.0,95,0.00,,,0.14,VWS V14.01,2013-09-29 12:01:00,
2013-09-29 08:06:00,74.9,73.4,29.95,NNW,329,0.0,2.0,95,0.00,,,0.14,VWS V14.01,2013-09-29 12:06:00,
2013-09-29 08:11:00,75.1,73.6,29.95,NNW,329,2.0,2.0,95,0.00,,,0.14,VWS V14.01,2013-09-29 12:11:00,
2013-09-29 08:15:00,75.3,73.8,29.95,NNW,329,0.0,3.0,95,0.00,,,0.14,VWS V14.01,2013-09-29 12:15:00,
2013-09-29 08:16:00,75.2,73.7,29.95,NNW,329,1.0,2.0,95,0.00,,,0.14,VWS V14.01,2013-09-29 12:16:00,
2013-09-29 08:21:00,75.4,73.6,29.95,North,360,2.0,4.0,94,0.00,,,0.14,VWS V14.01,2013-09-29 12:21:00,
2013-09-29 08:26:00,75.6,73.8,29.95,NNE,23,2.0,4.0,94,0.00,,,0.14,VWS V14.01,2013-09-29 12:26:00,
2013-09-29 08:30:00,76.0,74.2,29.95,NNE,23,2.0,4.0,94,0.00,,,0.14,VWS V14.01,2013-09-29 12:30:00,
2013-09-29 08:31:00,76.0,74.2,29.95,NNE,23,1.0,3.0,94,0.00,,,0.14,VWS V14.01,2013-09-29 12:31:00,
2013-09-29 08:36:00,76.3,74.1,29.96,NNE,23,1.0,3.0,93,0.00,,,0.14,VWS V14.01,2013-09-29 12:36:00,
2013-09-29 08:41:00,76.8,74.3,29.96,NNE,23,2.0,4.0,92,0.00,,,0.14,VWS V14.01,2013-09-29 12:41:00,
2013-09-29 08:45:00,77.1,74.3,29.96,North,360,4.0,4.0,91,0.00,,,0.14,VWS V14.01,2013-09-29 12:45:00,
2013-09-29 08:46:00,77.2,74.0,29.96,North,351,1.0,4.0,90,0.00,,,0.14,VWS V14.01,2013-09-29 12:46:00,
2013-09-29 08:51:00,77.5,74.3,29.96,NNW,347,1.0,4.0,90,0.00,,,0.14,VWS V14.01,2013-09-29 12:51:00,
2013-09-29 08:56:00,77.8,74.3,29.96,North,355,2.0,4.0,89,0.00,,,0.14,VWS V14.01,2013-09-29 12:56:00,
2013-09-29 09:00:00,78.2,74.4,29.96,NNE,13,0.0,4.0,88,0.00,,,0.14,VWS V14.01,2013-09-29 13:00:00,
2013-09-29 09:01:00,78.2,74.4,29.96,NNE,13,1.0,3.0,88,0.00,,,0.14,VWS V14.01,2013-09-29 13:01:00,
2013-09-29 09:06:00,78.8,74.9,29.96,NNE,13,1.0,3.0,88,0.00,,,0.14,VWS V14.01,2013-09-29 13:06:00,
2013-09-29 09:11:00,79.3,74.8,29.96,NNE,21,0.0,3.0,86,0.00,,,0.14,VWS V14.01,2013-09-29 13:11:00,
2013-09-29 09:15:00,79.8,74.9,29.96,NNE,33,0.0,3.0,85,0.00,,,0.14,VWS V14.01,2013-09-29 13:15:00,
2013-09-29 09:16:00,79.9,74.6,29.96,NNE,33,0.0,1.0,84,0.00,,,0.14,VWS V14.01,2013-09-29 13:16:00,
2013-09-29 09:21:00,80.4,74.8,29.96,NNE,33,0.0,2.0,83,0.00,,,0.14,VWS V14.01,2013-09-29 13:21:00,
2013-09-29 09:26:00,81.0,75.0,29.96,NE,46,0.0,2.0,82,0.00,,,0.14,VWS V14.01,2013-09-29 13:26:00,
2013-09-29 09:30:00,81.4,74.6,29.96,ENE,71,0.0,3.0,80,0.00,,,0.14,VWS V14.01,2013-09-29 13:30:00,
2013-09-29 09:31:00,81.6,74.8,29.96,ENE,66,0.0,2.0,80,0.00,,,0.14,VWS V14.01,2013-09-29 13:31:00,
2013-09-29 09:36:00,82.1,74.9,29.96,NNW,344,0.0,3.0,79,0.00,,,0.14,VWS V14.01,2013-09-29 13:36:00,
2013-09-29 09:41:00,82.5,74.2,29.96,North,360,2.0,5.0,76,0.00,,,0.14,VWS V14.01,2013-09-29 13:41:00,
2013-09-29 09:45:00,83.1,74.4,29.97,ENE,76,2.0,5.0,75,0.00,,,0.14,VWS V14.01,2013-09-29 13:45:00,
2013-09-29 09:46:00,83.2,74.1,29.96,NE,55,1.0,3.0,74,0.00,,,0.14,VWS V14.01,2013-09-29 13:46:00,
2013-09-29 09:51:00,83.2,73.2,29.96,ENE,71,0.0,3.0,72,0.00,,,0.14,VWS V14.01,2013-09-29 13:51:00,
2013-09-29 09:56:00,83.8,74.2,29.96,NE,51,1.0,4.0,73,0.00,,,0.14,VWS V14.01,2013-09-29 13:56:00,
2013-09-29 10:00:00,84.0,73.2,29.96,NE,47,2.0,4.0,70,0.00,,,0.14,VWS V14.01,2013-09-29 14:00:00,
2013-09-29 10:01:00,84.0,72.7,29.97,NE,46,3.0,3.0,69,0.00,,,0.14,VWS V14.01,2013-09-29 14:01:00,
2013-09-29 10:06:00,84.1,72.8,29.97,ENE,57,2.0,5.0,69,0.00,,,0.14,VWS V14.01,2013-09-29 14:06:00,
2013-09-29 10:11:00,84.3,72.2,29.97,NE,38,5.0,7.0,67,0.00,,,0.14,VWS V14.01,2013-09-29 14:11:00,
2013-09-29 10:15:00,84.6,72.4,29.97,NE,53,0.0,7.0,67,0.00,,,0.14,VWS V14.01,2013-09-29 14:15:00,
2013-09-29 10:16:00,84.8,72.2,29.97,East,90,2.0,5.0,66,0.00,,,0.14,VWS V14.01,2013-09-29 14:16:00,
2013-09-29 10:21:00,85.0,72.4,29.97,East,96,0.0,5.0,66,0.00,,,0.14,VWS V14.01,2013-09-29 14:21:00,
2013-09-29 10:26:00,85.3,72.2,29.97,ENE,76,1.0,5.0,65,0.00,,,0.14,VWS V14.01,2013-09-29 14:26:00,
2013-09-29 10:30:00,84.9,71.8,29.97,ENE,57,2.0,6.0,65,0.00,,,0.14,VWS V14.01,2013-09-29 14:30:00,
2013-09-29 10:31:00,84.8,71.7,29.97,NNE,22,3.0,3.0,65,0.00,,,0.14,VWS V14.01,2013-09-29 14:31:00,
2013-09-29 10:36:00,85.5,72.4,29.97,ENE,67,1.0,3.0,65,0.00,,,0.14,VWS V14.01,2013-09-29 14:36:00,
2013-09-29 10:41:00,86.0,71.9,29.97,NE,34,0.0,5.0,63,0.00,,,0.14,VWS V14.01,2013-09-29 14:41:00,
2013-09-29 10:45:00,86.3,71.3,29.97,East,90,0.0,5.0,61,0.00,,,0.14,VWS V14.01,2013-09-29 14:45:00,
2013-09-29 10:46:00,86.4,71.4,29.97,East,98,0.0,1.0,61,0.00,,,0.14,VWS V14.01,2013-09-29 14:46:00,
2013-09-29 10:51:00,86.7,71.2,29.97,NE,48,2.0,4.0,60,0.00,,,0.14,VWS V14.01,2013-09-29 14:51:00,
2013-09-29 10:56:00,87.0,71.4,29.97,NNE,15,2.0,8.0,60,0.00,,,0.14,VWS V14.01,2013-09-29 14:56:00,
2013-09-29 11:00:00,87.5,72.4,29.97,NE,34,1.0,8.0,61,0.00,,,0.14,VWS V14.01,2013-09-29 15:00:00,
2013-09-29 11:01:00,87.7,71.6,29.97,NE,34,0.0,1.0,59,0.00,,,0.14,VWS V14.01,2013-09-29 15:01:00,
2013-09-29 11:06:00,88.1,71.5,29.97,ESE,113,0.0,4.0,58,0.00,,,0.14,VWS V14.01,2013-09-29 15:06:00,
2013-09-29 11:11:00,87.9,70.8,29.97,East,92,0.0,6.0,57,0.00,,,0.14,VWS V14.01,2013-09-29 15:11:00,
2013-09-29 11:15:00,88.3,71.7,29.96,East,88,2.0,6.0,58,0.00,,,0.14,VWS V14.01,2013-09-29 15:15:00,
2013-09-29 11:16:00,88.4,72.3,29.97,East,85,2.0,2.0,59,0.00,,,0.14,VWS V14.01,2013-09-29 15:16:00,
2013-09-29 11:21:00,88.7,71.0,29.96,NNE,31,3.0,8.0,56,0.00,,,0.14,VWS V14.01,2013-09-29 15:21:00,
2013-09-29 11:26:00,88.5,70.8,29.96,NE,46,3.0,8.0,56,0.00,,,0.14,VWS V14.01,2013-09-29 15:26:00,
2013-09-29 11:30:00,88.4,70.7,29.96,ESE,109,1.0,8.0,56,0.00,,,0.14,VWS V14.01,2013-09-29 15:30:00,
2013-09-29 11:31:00,88.4,70.7,29.96,East,86,5.0,5.0,56,0.00,,,0.14,VWS V14.01,2013-09-29 15:31:00,
2013-09-29 11:36:00,88.7,71.5,29.96,NNE,30,2.0,6.0,57,0.00,,,0.14,VWS V14.01,2013-09-29 15:36:00,
2013-09-29 11:41:00,89.3,71.0,29.96,NNE,28,5.0,7.0,55,0.00,,,0.14,VWS V14.01,2013-09-29 15:41:00,
2013-09-29 11:45:00,89.8,70.9,29.96,ENE,71,3.0,7.0,54,0.00,,,0.14,VWS V14.01,2013-09-29 15:45:00,
2013-09-29 11:46:00,89.6,70.8,29.96,NE,49,3.0,6.0,54,0.00,,,0.14,VWS V14.01,2013-09-29 15:46:00,
2013-09-29 11:51:00,88.4,70.2,29.96,East,91,1.0,6.0,55,0.00,,,0.14,VWS V14.01,2013-09-29 15:51:00,
2013-09-29 11:56:00,88.0,70.9,29.96,North,5,2.0,6.0,57,0.00,,,0.14,VWS V14.01,2013-09-29 15:56:00,
2013-09-29 12:00:00,88.5,71.3,29.96,NE,46,2.0,8.0,57,0.00,,,0.14,VWS V14.01,2013-09-29 16:00:00,
2013-09-29 12:01:00,88.6,71.4,29.96,NE,45,2.0,2.0,57,0.00,,,0.14,VWS V14.01,2013-09-29 16:01:00,
2013-09-29 12:06:00,89.0,71.3,29.96,ENE,68,2.0,7.0,56,0.00,,,0.14,VWS V14.01,2013-09-29 16:06:00,
2013-09-29 12:11:00,89.2,70.9,29.96,NE,36,2.0,8.0,55,0.00,,,0.14,VWS V14.01,2013-09-29 16:11:00,
2013-09-29 12:15:00,89.0,70.8,29.96,ESE,120,3.0,9.0,55,0.00,,,0.14,VWS V14.01,2013-09-29 16:15:00,
2013-09-29 12:16:00,89.1,71.4,29.96,NE,44,2.0,7.0,56,0.00,,,0.14,VWS V14.01,2013-09-29 16:16:00,
2013-09-29 12:21:00,89.6,71.3,29.96,ENE,78,1.0,8.0,55,0.00,,,0.14,VWS V14.01,2013-09-29 16:21:00,
2013-09-29 12:26:00,90.3,71.4,29.96,East,97,2.0,8.0,54,0.00,,,0.14,VWS V14.01,2013-09-29 16:26:00,
2013-09-29 12:30:00,90.2,70.8,29.95,NE,40,2.0,8.0,53,0.00,,,0.14,VWS V14.01,2013-09-29 16:30:00,
2013-09-29 12:31:00,90.0,71.1,29.95,East,86,5.0,5.0,54,0.00,,,0.14,VWS V14.01,2013-09-29 16:31:00,
2013-09-29 12:36:00,90.1,70.7,29.95,ENE,72,1.0,7.0,53,0.00,,,0.14,VWS V14.01,2013-09-29 16:36:00,
2013-09-29 12:41:00,90.9,70.8,29.95,ENE,67,2.0,10.0,52,0.00,,,0.14,VWS V14.01,2013-09-29 16:41:00,
2013-09-29 12:45:00,90.6,71.7,29.95,NNE,24,1.0,10.0,54,0.00,,,0.14,VWS V14.01,2013-09-29 16:45:00,
2013-09-29 12:46:00,90.7,71.8,29.95,ENE,72,7.0,7.0,54,0.00,,,0.14,VWS V14.01,2013-09-29 16:46:00,
2013-09-29 12:51:00,90.7,70.1,29.95,NE,39,1.0,7.0,51,0.00,,,0.14,VWS V14.01,2013-09-29 16:51:00,
2013-09-29 12:57:00,90.7,70.7,29.94,East,82,2.0,7.0,52,0.00,,,0.14,VWS V14.01,2013-09-29 16:57:00,
2013-09-29 13:00:00,91.2,70.0,29.94,North,9,4.0,7.0,50,0.00,,,0.14,VWS V14.01,2013-09-29 17:00:00,
2013-09-29 13:03:00,90.8,70.2,29.94,NE,48,2.0,6.0,51,0.00,,,0.14,VWS V14.01,2013-09-29 17:03:00,
2013-09-29 13:08:00,90.9,69.7,29.94,NE,34,0.0,7.0,50,0.00,,,0.14,VWS V14.01,2013-09-29 17:08:00,
2013-09-29 13:13:00,91.7,70.4,29.93,WSW,242,2.0,7.0,50,0.00,,,0.14,VWS V14.01,2013-09-29 17:13:00,
2013-09-29 13:15:00,91.8,70.5,29.93,East,98,2.0,7.0,50,0.00,,,0.14,VWS V14.01,2013-09-29 17:15:00,
2013-09-29 13:18:00,92.2,73.2,29.93,ENE,57,2.0,7.0,54,0.00,,,0.14,VWS V14.01,2013-09-29 17:18:00,
2013-09-29 13:23:00,91.7,69.2,29.93,NE,51,0.0,8.0,48,0.00,,,0.14,VWS V14.01,2013-09-29 17:23:00,
2013-09-29 13:28:00,91.8,69.9,29.93,ESE,102,2.0,8.0,49,0.00,,,0.14,VWS V14.01,2013-09-29 17:28:00,
2013-09-29 13:30:00,91.9,70.0,29.92,East,92,3.0,8.0,49,0.00,,,0.14,VWS V14.01,2013-09-29 17:30:00,
2013-09-29 13:33:00,91.0,68.6,29.92,North,5,5.0,5.0,48,0.00,,,0.14,VWS V14.01,2013-09-29 17:33:00,
2013-09-29 13:38:00,89.9,68.2,29.92,NNW,346,5.0,7.0,49,0.00,,,0.14,VWS V14.01,2013-09-29 17:38:00,
2013-09-29 13:43:00,90.1,69.6,29.92,ENE,70,1.0,7.0,51,0.00,,,0.14,VWS V14.01,2013-09-29 17:43:00,
2013-09-29 13:45:00,90.8,69.6,29.92,NE,38,0.0,7.0,50,0.00,,,0.14,VWS V14.01,2013-09-29 17:45:00,
2013-09-29 13:48:00,90.9,69.1,29.92,ENE,63,2.0,8.0,49,0.00,,,0.14,VWS V14.01,2013-09-29 17:48:00,
2013-09-29 13:53:00,92.0,68.3,29.92,East,84,2.0,8.0,46,0.00,,,0.14,VWS V14.01,2013-09-29 17:53:00,
2013-09-29 13:58:00,92.0,67.6,29.92,ENE,76,0.0,10.0,45,0.00,,,0.14,VWS V14.01,2013-09-29 17:58:00,
2013-09-29 14:00:00,92.3,68.5,29.92,NNE,26,1.0,10.0,46,0.00,,,0.14,VWS V14.01,2013-09-29 18:00:00,
2013-09-29 14:03:00,93.1,69.3,29.92,ENE,75,1.0,3.0,46,0.00,,,0.14,VWS V14.01,2013-09-29 18:03:00,
2013-09-29 14:08:00,93.8,69.3,29.92,SE,141,2.0,6.0,45,0.00,,,0.14,VWS V14.01,2013-09-29 18:08:00,
2013-09-29 14:13:00,94.0,68.8,29.92,ESE,120,3.0,6.0,44,0.00,,,0.14,VWS V14.01,2013-09-29 18:13:00,
2013-09-29 14:15:00,93.9,69.3,29.92,SE,135,1.0,6.0,45,0.00,,,0.14,VWS V14.01,2013-09-29 18:15:00,
2013-09-29 14:18:00,94.1,68.9,29.91,NE,46,1.0,3.0,44,0.00,,,0.14,VWS V14.01,2013-09-29 18:18:00,
2013-09-29 14:23:00,93.1,68.6,29.91,ESE,106,5.0,8.0,45,0.00,,,0.14,VWS V14.01,2013-09-29 18:23:00,
2013-09-29 14:28:00,92.6,69.4,29.91,SE,126,2.0,10.0,47,0.00,,,0.14,VWS V14.01,2013-09-29 18:28:00,
2013-09-29 14:30:00,92.7,70.2,29.91,NE,56,1.0,10.0,48,0.00,,,0.14,VWS V14.01,2013-09-29 18:30:00,
2013-09-29 14:33:00,92.7,69.5,29.91,NNE,25,3.0,7.0,47,0.00,,,0.14,VWS V14.01,2013-09-29 18:33:00,
2013-09-29 14:38:00,93.2,70.0,29.91,ESE,104,2.0,7.0,47,0.00,,,0.14,VWS V14.01,2013-09-29 18:38:00,
2013-09-29 14:43:00,93.5,69.0,29.90,ENE,68,2.0,7.0,45,0.00,,,0.14,VWS V14.01,2013-09-29 18:43:00,
2013-09-29 14:45:00,92.8,68.4,29.90,SE,134,4.0,7.0,45,0.00,,,0.14,VWS V14.01,2013-09-29 18:45:00,
2013-09-29 14:48:00,92.3,68.5,29.90,SE,132,1.0,7.0,46,0.00,,,0.14,VWS V14.01,2013-09-29 18:48:00,
2013-09-29 14:53:00,92.8,68.4,29.90,North,5,5.0,7.0,45,0.00,,,0.14,VWS V14.01,2013-09-29 18:53:00,
2013-09-29 14:58:00,92.0,69.5,29.89,East,89,3.0,9.0,48,0.00,,,0.14,VWS V14.01,2013-09-29 18:58:00,
2013-09-29 15:00:00,92.4,68.6,29.89,NE,40,5.0,9.0,46,0.00,,,0.14,VWS V14.01,2013-09-29 19:00:00,
2013-09-29 15:03:00,92.3,69.2,29.89,East,84,3.0,5.0,47,0.00,,,0.14,VWS V14.01,2013-09-29 19:03:00,
2013-09-29 15:08:00,92.9,69.1,29.89,ENE,75,0.0,7.0,46,0.00,,,0.14,VWS V14.01,2013-09-29 19:08:00,
2013-09-29 15:13:00,93.5,69.0,29.89,ENE,67,5.0,11.0,45,0.00,,,0.14,VWS V14.01,2013-09-29 19:13:00,
2013-09-29 15:15:00,92.5,68.7,29.89,ESE,108,3.0,11.0,46,0.00,,,0.14,VWS V14.01,2013-09-29 19:15:00,
2013-09-29 15:18:00,92.2,69.1,29.89,NE,36,2.0,6.0,47,0.00,,,0.14,VWS V14.01,2013-09-29 19:18:00,
2013-09-29 15:23:00,92.0,68.9,29.89,NNE,29,1.0,6.0,47,0.00,,,0.14,VWS V14.01,2013-09-29 19:23:00,
2013-09-29 15:28:00,91.7,69.2,29.89,SSW,192,4.0,7.0,48,0.00,,,0.14,VWS V14.01,2013-09-29 19:28:00,
2013-09-29 15:30:00,91.7,69.2,29.89,NNE,23,1.0,7.0,48,0.00,,,0.14,VWS V14.01,2013-09-29 19:30:00,
2013-09-29 15:33:00,92.0,69.5,29.88,ESE,105,4.0,5.0,48,0.00,,,0.14,VWS V14.01,2013-09-29 19:33:00,
2013-09-29 15:38:00,92.0,68.9,29.89,ENE,70,5.0,6.0,47,0.00,,,0.14,VWS V14.01,2013-09-29 19:38:00,
2013-09-29 15:43:00,92.1,69.6,29.88,ENE,65,2.0,8.0,48,0.00,,,0.14,VWS V14.01,2013-09-29 19:43:00,
2013-09-29 15:45:00,92.0,70.1,29.88,ESE,117,3.0,8.0,49,0.00,,,0.14,VWS V14.01,2013-09-29 19:45:00,
2013-09-29 15:47:00,91.9,70.0,29.88,NNW,346,2.0,3.0,49,0.00,,,0.14,VWS V14.01,2013-09-29 19:47:00,
2013-09-29 15:49:00,92.1,70.2,29.88,NNW,336,1.0,3.0,49,0.00,,,0.14,VWS V14.01,2013-09-29 19:49:00,
2013-09-29 15:54:00,92.2,70.3,29.88,East,96,3.0,8.0,49,0.00,,,0.14,VWS V14.01,2013-09-29 19:54:00,
2013-09-29 15:59:00,91.5,69.7,29.88,East,90,2.0,10.0,49,0.00,,,0.14,VWS V14.01,2013-09-29 19:59:00,
2013-09-29 16:00:00,91.2,70.0,29.88,NE,34,1.0,10.0,50,0.00,,,0.14,VWS V14.01,2013-09-29 20:00:00,
2013-09-29 16:04:00,90.9,70.3,29.88,SSE,165,5.0,9.0,51,0.00,,,0.14,VWS V14.01,2013-09-29 20:04:00,
2013-09-29 16:10:00,91.0,70.9,29.87,East,82,1.0,9.0,52,0.00,,,0.14,VWS V14.01,2013-09-29 20:10:00,
2013-09-29 16:15:00,90.4,70.4,29.88,ENE,68,3.0,9.0,52,0.00,,,0.00,VWS V14.01,2013-09-29 20:15:00,
2013-09-29 16:30:00,91.7,71.6,29.88,NNE,22,2.0,8.0,52,0.00,,,0.00,VWS V14.01,2013-09-29 20:30:00,
2013-09-29 16:45:00,90.6,71.1,29.88,ENE,68,3.0,11.0,53,0.00,,,0.00,VWS V14.01,2013-09-29 20:45:00,
2013-09-29 17:00:00,91.2,70.0,29.88,NE,34,1.0,10.0,50,0.00,,,0.14,VWS V14.01,2013-09-29 21:00:00,
2013-09-29 17:11:00,90.6,71.1,29.88,ENE,68,3.0,11.0,53,0.00,,,0.00,VWS V14.01,2013-09-29 21:11:00,
2013-09-29 17:15:00,90.4,70.4,29.88,ENE,68,3.0,9.0,52,0.00,,,0.00,VWS V14.01,2013-09-29 21:15:00,
2013-09-29 17:16:00,89.9,71.0,29.89,WNW,284,2.0,8.0,54,0.27,,,0.14,VWS V14.01,2013-09-29 21:16:00,
2013-09-29 17:21:00,90.2,71.3,29.89,East,99,1.0,8.0,54,0.27,,,0.14,VWS V14.01,2013-09-29 21:21:00,
2013-09-29 17:26:00,90.8,71.3,29.89,NE,40,1.0,8.0,53,0.27,,,0.14,VWS V14.01,2013-09-29 21:26:00,
2013-09-29 17:30:00,91.7,71.6,29.88,NNE,22,2.0,8.0,52,0.00,,,0.00,VWS V14.01,2013-09-29 21:30:00,
2013-09-29 17:31:00,90.2,70.8,29.89,SSE,163,2.0,3.0,53,0.27,,,0.14,VWS V14.01,2013-09-29 21:31:00,
2013-09-29 17:36:00,89.9,71.0,29.89,East,98,2.0,5.0,54,0.27,,,0.14,VWS V14.01,2013-09-29 21:36:00,
2013-09-29 17:41:00,89.2,70.9,29.89,SSE,157,2.0,7.0,55,0.27,,,0.14,VWS V14.01,2013-09-29 21:41:00,
2013-09-29 17:45:00,90.6,71.1,29.88,ENE,68,3.0,11.0,53,0.00,,,0.00,VWS V14.01,2013-09-29 21:45:00,
2013-09-29 17:46:00,87.9,70.8,29.89,East,98,3.0,5.0,57,0.27,,,0.14,VWS V14.01,2013-09-29 21:46:00,
2013-09-29 17:51:00,87.2,71.1,29.90,SSW,192,1.0,7.0,59,0.27,,,0.14,VWS V14.01,2013-09-29 21:51:00,
2013-09-29 17:56:00,87.5,70.9,29.90,SSE,148,2.0,9.0,58,0.27,,,0.14,VWS V14.01,2013-09-29 21:56:00,
2013-09-29 18:01:00,87.0,70.9,29.90,ENE,73,1.0,2.0,59,0.00,,,0.14,VWS V14.01,2013-09-29 22:01:00,
2013-09-29 18:06:00,86.8,71.3,29.90,ENE,78,1.0,7.0,60,0.00,,,0.14,VWS V14.01,2013-09-29 22:06:00,
2013-09-29 18:11:00,86.5,71.0,29.90,ESE,123,0.0,7.0,60,0.00,,,0.14,VWS V14.01,2013-09-29 22:11:00,
2013-09-29 18:15:00,89.9,71.0,29.89,East,94,7.0,8.0,54,0.00,,,0.14,VWS V14.01,2013-09-29 22:15:00,
2013-09-29 18:16:00,86.6,71.6,29.90,East,85,0.0,2.0,61,0.00,,,0.14,VWS V14.01,2013-09-29 22:16:00,
2013-09-29 18:21:00,87.0,71.4,29.90,East,80,1.0,6.0,60,0.00,,,0.14,VWS V14.01,2013-09-29 22:21:00,
2013-09-29 18:26:00,86.9,71.8,29.90,ESE,121,3.0,7.0,61,0.00,,,0.14,VWS V14.01,2013-09-29 22:26:00,
2013-09-29 18:30:00,90.3,70.3,29.89,NNE,27,1.0,8.0,52,0.27,,,0.14,VWS V14.01,2013-09-29 22:30:00,
2013-09-29 18:31:00,86.6,72.0,29.90,NE,41,2.0,3.0,62,0.00,,,0.14,VWS V14.01,2013-09-29 22:31:00,
2013-09-29 18:36:00,86.2,71.7,29.90,NE,55,4.0,9.0,62,0.00,,,0.14,VWS V14.01,2013-09-29 22:36:00,
2013-09-29 18:41:00,85.8,71.8,29.90,NE,53,0.0,9.0,63,0.00,,,0.14,VWS V14.01,2013-09-29 22:41:00,
2013-09-29 18:45:00,88.1,71.0,29.89,ENE,78,4.0,8.0,57,0.27,,,0.14,VWS V14.01,2013-09-29 22:45:00,
2013-09-29 18:46:00,85.6,71.6,29.91,ENE,57,0.0,2.0,63,0.00,,,0.14,VWS V14.01,2013-09-29 22:46:00,
2013-09-29 18:51:00,85.4,71.4,29.90,ESE,110,1.0,8.0,63,0.00,,,0.14,VWS V14.01,2013-09-29 22:51:00,
2013-09-29 18:56:00,84.8,71.7,29.91,ESE,113,1.0,8.0,65,0.00,,,0.14,VWS V14.01,2013-09-29 22:56:00,
2013-09-29 19:00:00,87.0,70.9,29.90,NE,54,1.0,9.0,59,0.27,,,0.14,VWS V14.01,2013-09-29 23:00:00,
2013-09-29 19:01:00,84.3,71.3,29.91,SE,136,1.0,6.0,65,0.00,,,0.14,VWS V14.01,2013-09-29 23:01:00,
2013-09-29 19:06:00,83.6,71.1,29.91,ESE,118,3.0,8.0,66,0.00,,,0.14,VWS V14.01,2013-09-29 23:06:00,
2013-09-29 19:11:00,83.3,70.8,29.91,East,88,1.0,8.0,66,0.00,,,0.14,VWS V14.01,2013-09-29 23:11:00,
2013-09-29 19:15:00,86.5,71.0,29.90,ENE,63,2.0,7.0,60,0.00,,,0.14,VWS V14.01,2013-09-29 23:15:00,
2013-09-29 19:16:00,83.0,70.9,29.91,NNE,23,4.0,7.0,67,0.00,,,0.14,VWS V14.01,2013-09-29 23:16:00,
2013-09-29 19:21:00,82.7,70.2,29.92,East,82,2.0,9.0,66,0.00,,,0.14,VWS V14.01,2013-09-29 23:21:00,
2013-09-29 19:26:00,82.6,70.1,29.92,East,87,0.0,9.0,66,0.00,,,0.14,VWS V14.01,2013-09-29 23:26:00,
2013-09-29 19:30:00,86.6,72.0,29.90,ESE,119,3.0,7.0,62,0.00,,,0.14,VWS V14.01,2013-09-29 23:30:00,
2013-09-29 19:31:00,82.5,70.0,29.92,East,84,1.0,3.0,66,0.00,,,0.14,VWS V14.01,2013-09-29 23:31:00,
2013-09-29 19:36:00,82.4,70.3,29.92,ENE,71,1.0,5.0,67,0.00,,,0.14,VWS V14.01,2013-09-29 23:36:00,
2013-09-29 19:41:00,82.3,70.7,29.92,NE,50,3.0,5.0,68,0.00,,,0.14,VWS V14.01,2013-09-29 23:41:00,
2013-09-29 19:45:00,85.6,71.1,29.91,ENE,77,2.0,9.0,62,0.00,,,0.14,VWS V14.01,2013-09-29 23:45:00,
2013-09-29 19:46:00,82.1,70.5,29.92,ENE,60,0.0,1.0,68,0.00,,,0.14,VWS V14.01,2013-09-29 23:46:00,
2013-09-29 19:51:00,82.0,70.4,29.92,East,97,1.0,2.0,68,0.00,,,0.14,VWS V14.01,2013-09-29 23:51:00,
2013-09-29 19:56:00,81.9,70.7,29.92,ENE,65,1.0,3.0,69,0.00,,,0.14,VWS V14.01,2013-09-29 23:56:00,
2013-09-29 20:00:00,84.4,71.4,29.91,NNE,23,2.0,8.0,65,0.00,,,0.14,VWS V14.01,2013-09-30 00:00:00,
2013-09-29 20:01:00,81.8,70.6,29.92,East,80,2.0,2.0,69,0.00,,,0.14,VWS V14.01,2013-09-30 00:01:00,
2013-09-29 20:15:00,81.6,70.4,29.93,ENE,68,1.0,6.0,69,0.00,,,0.14,VWS V14.01,2013-09-30 00:15:00,
2013-09-29 20:30:00,81.3,70.6,29.93,East,90,0.0,4.0,70,0.00,,,0.14,VWS V14.01,2013-09-30 00:30:00,
2013-09-29 20:45:00,81.1,70.4,29.94,ENE,68,1.0,6.0,70,0.00,,,0.14,VWS V14.01,2013-09-30 00:45:00,
2013-09-29 21:00:00,80.8,70.5,29.94,East,90,0.0,4.0,71,0.00,,,0.14,VWS V14.01,2013-09-30 01:00:00,
2013-09-29 21:15:00,80.6,70.8,29.94,ENE,68,1.0,4.0,72,0.00,,,0.14,VWS V14.01,2013-09-30 01:15:00,
2013-09-29 21:30:00,80.4,70.6,29.94,ENE,68,1.0,4.0,72,0.00,,,0.14,VWS V14.01,2013-09-30 01:30:00,
2013-09-29 21:45:00,80.2,70.4,29.95,NE,45,1.0,3.0,72,0.00,,,0.14,VWS V14.01,2013-09-30 01:45:00,
2013-09-29 22:00:00,80.0,70.6,29.96,ENE,68,0.0,3.0,73,0.00,,,0.14,VWS V14.01,2013-09-30 02:00:00,
2013-09-29 22:15:00,79.7,70.7,29.96,East,90,0.0,2.0,74,0.00,,,0.14,VWS V14.01,2013-09-30 02:15:00,
2013-09-29 22:30:00,79.4,70.8,29.96,East,90,0.0,1.0,75,0.00,,,0.14,VWS V14.01,2013-09-30 02:30:00,
2013-09-29 22:45:00,79.3,70.7,29.96,East,90,0.0,3.0,75,0.00,,,0.14,VWS V14.01,2013-09-30 02:45:00,
2013-09-29 23:00:00,78.9,70.7,29.96,East,90,0.0,1.0,76,0.00,,,0.14,VWS V14.01,2013-09-30 03:00:00,
2013-09-29 23:15:00,78.7,70.9,29.96,NNE,22,0.0,2.0,77,0.00,,,0.14,VWS V14.01,2013-09-30 03:15:00,
2013-09-29 23:30:00,78.8,71.0,29.96,NNE,22,0.0,3.0,77,0.00,,,0.14,VWS V14.01,2013-09-30 03:30:00,
2013-09-29 23:45:00,78.4,70.6,29.96,NNE,22,0.0,1.0,77,0.00,,,0.14,VWS V14.01,2013-09-30 03:45:00,